Regional Weather Roundup
Issued by NWS

Home | Current Version | Previous Version | Graphics & Text | Print | Product List | Glossary On
Versions: 1 2 3 4 5 6 7 8 9 10 11 12 13 14 15 16 17 18 19 20 21 22 23 24 25 26 27 28 29 30 31 32 33 34 35 36 37 38 39 40 41 42 43 44 45 46 47 48 49 50
000
ASUS43 KDMX 221501
RWRIA

WEATHER ROUNDUP FOR IOWA
NATIONAL WEATHER SERVICE DES MOINES IA
1000 AM CDT THU JUN 22 2017

NOTE: "FAIR" INDICATES FEW OR NO CLOUDS BELOW 12,000 FEET WITH NO
SIGNIFICANT WEATHER AND/OR OBSTRUCTIONS TO VISIBILITY.

* - THESE STATIONS ARE NOT NWS STATIONS...THUS NOT UNDER NWS
QUALITY CONTROL.  THEY ALSO DO NOT REPORT WEATHER SUCH
AS PRECIPITATION OR FOG.

IAZ001>003-012>014-020>022-031>034-043>046-221600-
   NORTHWEST IOWA

CITY           SKY/WX    TMP DP  RH WIND       PRES   REMARKS
CARROLL *      MOSUNNY   79  63  57 SW13G18   29.68R HX  80
CHEROKEE *     SUNNY     79  65  62 CALM      29.68F HX  81
DENISON *      SUNNY     81  63  54 SW9G18    29.68S HX  82
LE MARS *      SUNNY     77  66  69 NE10G18   29.67S
ORANGE CITY *  CLOUDY    72  63  73 NE15G28   29.70R
SHELDON *      MOSUNNY   70  63  78 NE17G25   29.70S
SIOUX CITY     SUNNY     84  63  49 W5        29.64R HX  85
SPENCER        CLOUDY    72  61  68 NE22G28   29.72S
STORM LAKE *     N/A     81  63  54 VRB5G12   29.69S HX  82
$$

IAZ055>058-069>071-079>083-090>094-221600-
   SOUTHWEST IOWA

CITY           SKY/WX    TMP DP  RH WIND       PRES   REMARKS
ATLANTIC *     PTSUNNY   79  64  61 S14G21    29.68S HX  81
AUDUBON *      CLOUDY    79  66  65 S10G16    29.70R HX  81
CLARINDA *     CLOUDY    77  66  69 S15G24    29.71F
COUNCIL BLFS * CLOUDY    77  64  65 S12G17    29.67S
CRESTON *      SUNNY     81  64  57 SW21G26   29.73S HX  82
HARLAN  *      SUNNY     77  64  65 S14G22    29.71R
LAMONI         SUNNY     79  67  66 S20G28    29.73F HX  81
RED OAK *      CLOUDY    81  66  61 S17G24    29.68F HX  83
SHENANDOAH *   CLOUDY    77  66  69 S10G17    29.69F
$$

IAZ047>049-059>061-072>074-084-221600-
   CENTRAL IOWA

CITY           SKY/WX    TMP DP  RH WIND       PRES   REMARKS
AMES           CLOUDY    76  70  82 VRB3      29.71R
ANKENY *       CLOUDY    77  64  65 S9G16     29.71F
BOONE *        PTSUNNY   75  64  69 S7        29.69R
CHARITON *     SUNNY     81  66  61 SW21G29   29.73S HX  83
DES MOINES     CLOUDY    80  65  59 S13       29.70S HX  82
GRINNELL*      CLOUDY    77  65  66 SW12G17   29.77R
KNOXVILLE *    SUNNY     81  66  61 S13G20    29.71F HX  83
MARSHALLTOWN   TSTM      70  66  87 SE8       29.74R
NEWTON *       CLOUDY    77  64  65 SW12      29.74R
PELLA *        MOSUNNY   80  65  61 SW10      29.74S HX  82
PERRY *          N/A     79  62  55 S16G24    29.68F HX  81
$$

IAZ004>006-015-016-023>025-035-036-221600-
   NORTH CENTRAL IOWA

CITY           SKY/WX    TMP DP  RH WIND       PRES   REMARKS
ALGONA *       CLOUDY    73  68  83 S6        29.72R
CLARION *        N/A     75  72  88 SE13      29.70S
ESTHERVILLE    CLOUDY    65  64  97 NE14G25   29.70F THUNDER
FORT DODGE *   MOSUNNY   81  63  54 S6        29.70S HX  82
MASON CITY       N/A     70  65  84 S8        29.74R
FOREST CITY *  CLOUDY    70  61  73 W3        29.76R
WEBSTER CITY * MOSUNNY   79  66  65 S9        29.69R HX  81
IOWA FALLS *     N/A     70  65  85 SE7       29.74R
$$

IAZ007>011-017>019-026>030-037>042-050>054-066-221600-
   NORTHEAST IOWA

CITY           SKY/WX    TMP DP  RH WIND       PRES   REMARKS
CEDAR RAPIDS   MOSUNNY   76  69  79 SW7       29.78R
CHARLES CITY * CLOUDY    68  68 100 S9G17     29.73R
DECORAH *      LGT RAIN  68  64  88 S17G29    29.67F
DUBUQUE        CLOUDY    76  65  68 W7        29.84R
MONTICELLO *   MOSUNNY   77  68  73 NW8       29.83R
WATERLOO       CLOUDY    70  64  81 SE16      29.71F
$$

IAZ064-065-067-068-078-221600-
   EAST CENTRAL IOWA

CITY           SKY/WX    TMP DP  RH WIND       PRES   REMARKS
DAVENPORT      SUNNY     79  69  71 S12       29.80F HX  81
IOWA CITY      MOSUNNY   79  69  71 S9        29.77F HX  81
MT. PLEASANT * SUNNY     81  66  61 S17       29.77F HX  83
MUSCATINE *    SUNNY     82  68  61 S13G20    29.78S HX  85
QUAD CITIES    SUNNY     82  68  62 S10       29.79F HX  85
$$

IAZ062-063-075>077-085>089-095>099-221600-
   SOUTHEAST IOWA

CITY           SKY/WX    TMP DP  RH WIND       PRES   REMARKS
BURLINGTON     SUNNY     81  71  71 S16G23    29.77F HX  85
FAIRFIELD *    SUNNY     82  66  57 S18G24    29.75S HX  85
FORT MADISON * SUNNY     81  70  69 S18       29.78S HX  84
KEOKUK *       SUNNY     81  70  69 S15G26    29.76F HX  84
OSKALOOSA *      N/A     81  67  62 SW15G21   29.76R HX  84
OTTUMWA        MOSUNNY   81  67  62 S17       29.74R HX  83
WASHINGTON *   SUNNY     81  70  69 S15       29.77S HX  84
$$

ABBREVIATIONS USED IN REMARKS
   TC - TEMPERATURES IN CELSIUS
  WCI - WIND CHILL INDEX
   HX - HEAT INDEX
  VSB - VISIBILITY
$$




USA.gov is the U.S. government's official web portal to all federal, state and local government web resources and services.